Location: ??????????
(31.2156°N, 29.9553°E)
Time: 04:11:45
(UTC+00:00)

Cosmos 2333 Rocket - Pass Details

Date: 03 March 2021
Orbit: 837 x 864 km, 70.8° (Epoch: 14 April)

Event Time Altitude Azimuth Distance (km) Brightness Sun altitude
Rises 17:00:14 0° 184° (S) 3,376 5.4 -13.7°
Reaches altitude 10° 17:02:44 10° 178° (S) 2,448 4.6 -14.2°
Maximum altitude 17:08:07 48° 105° (ESE) 1,097 2.4 -15.4°
Drops below altitude 10° 17:13:32 10° 33° (NNE) 2,476 4.3 -16.5°
Sets 17:16:04 0° 28° (NNE) 3,420 5.1 -17.1°
